contact:dominique.lefevre@mio.osupytheas.fr, maurice.libes@osupytheas.fr
Project:EMSO Ligure-ouest http://www.emso-fr.org/EMSO-France
Sensor Aquadopp, line 04 Serial AQD8517 
DOI : "https://doi.org/10.17882/74513; https://doi.org/10.17882/83244" 
Title:EMSO Ligure Ouest : Data ligne ALBATROSS capteur AQUADOPP - deploiement 2021
Id,Date,Profondeur,Latitude,Longitude,X_East,Y_North,Z_Up,Amplitude_X,Amplitude_Y,Amplitude_Z,Batterie,SoundSpeed,Heading,Pitch,Roll,Pressure,Temperature,Speed,Direction
, , m, degrees North, degrees East, m.s-1, m.s-1,m.s-1, 1, 1, 1, Volt, m.s-1, degree, degree, degree, dbar, degree_C, m.s-1, degree
04,2022-03-16T21:30:00,1000.0,42.79,6.0312,0.0,-0.006,-0.008,63.0,66.0,63.0,12.2,1504.7,273.6,-0.5,-0.4,967.336,13.3,0.006,180.0
04,2022-03-16T22:00:00,1000.0,42.79,6.0312,0.004,-0.006,-0.005,65.0,64.0,65.0,12.3,1504.8,264.9,-0.5,-0.4,967.303,13.31,0.007,146.3
04,2022-03-16T22:30:00,1000.0,42.79,6.0312,-0.002,-0.011,0.007,63.0,69.0,61.0,12.2,1504.7,287.5,-0.4,-0.4,967.329,13.3,0.011,190.3
04,2022-03-16T23:00:00,1000.0,42.79,6.0312,-0.01,-0.022,0.0,64.0,66.0,63.0,12.3,1504.7,298.8,-0.4,-0.4,967.251,13.29,0.024,204.4
04,2022-03-16T23:30:00,1000.0,42.79,6.0312,0.0,-0.028,-0.007,64.0,66.0,64.0,12.2,1504.7,275.2,-0.4,-0.4,967.284,13.29,0.028,180.0
04,2022-03-17T00:00:00,1000.0,42.79,6.0312,-0.012,-0.019,-0.001,64.0,66.0,63.0,12.3,1504.7,273.0,-0.4,-0.4,967.227,13.29,0.022,212.3
04,2022-03-17T00:30:00,1000.0,42.79,6.0312,-0.009,-0.024,-0.022,64.0,64.0,62.0,12.3,1504.7,280.9,-0.4,-0.3,967.257,13.29,0.025,200.6
04,2022-03-17T01:00:00,1000.0,42.79,6.0312,0.007,-0.023,-0.014,64.0,66.0,62.0,12.2,1504.7,286.5,-0.4,-0.4,967.279,13.29,0.024,163.1
04,2022-03-17T01:30:00,1000.0,42.79,6.0312,0.013,-0.013,-0.011,64.0,67.0,61.0,12.3,1504.7,286.1,-0.4,-0.3,967.238,13.3,0.018,135.0
04,2022-03-17T02:00:00,1000.0,42.79,6.0312,0.012,-0.014,-0.005,65.0,66.0,62.0,12.3,1504.8,293.4,-0.4,-0.3,967.241,13.31,0.018,139.4
04,2022-03-17T02:30:00,1000.0,42.79,6.0312,0.0,-0.011,0.0,63.0,65.0,62.0,12.3,1504.8,303.3,-0.4,-0.4,967.265,13.31,0.011,180.0
04,2022-03-17T03:00:00,1000.0,42.79,6.0312,0.007,-0.022,0.0,62.0,66.0,62.0,12.2,1504.8,297.2,-0.4,-0.4,967.277,13.31,0.023,162.4
04,2022-03-17T03:30:00,1000.0,42.79,6.0312,-0.002,-0.021,0.021,64.0,64.0,63.0,12.3,1504.8,298.6,-0.4,-0.4,967.326,13.31,0.021,185.4
04,2022-03-17T04:00:00,1000.0,42.79,6.0312,-0.001,-0.032,0.021,65.0,65.0,63.0,12.3,1504.7,286.6,-0.4,-0.4,967.368,13.3,0.032,181.8
04,2022-03-17T04:30:00,1000.0,42.79,6.0312,-0.007,-0.036,0.006,65.0,67.0,60.0,12.2,1504.7,270.9,-0.4,-0.4,967.405,13.3,0.036,191.0
04,2022-03-17T05:00:00,1000.0,42.79,6.0312,-0.015,-0.03,0.007,64.0,67.0,63.0,12.3,1504.7,283.4,-0.4,-0.4,967.422,13.29,0.033,206.6
04,2022-03-17T05:30:00,1000.0,42.79,6.0312,-0.017,-0.022,0.001,63.0,65.0,60.0,12.3,1504.7,331.2,-0.4,-0.4,967.425,13.29,0.027,217.7
04,2022-03-17T06:00:00,1000.0,42.79,6.0312,-0.005,-0.025,0.0,64.0,65.0,62.0,12.3,1504.7,330.4,-0.4,-0.4,967.443,13.29,0.025,191.3
04,2022-03-17T06:30:00,1000.0,42.79,6.0312,-0.014,-0.023,0.001,66.0,67.0,63.0,12.3,1504.7,334.3,-0.4,-0.4,967.509,13.29,0.026,211.3
04,2022-03-17T07:00:00,1000.0,42.79,6.0312,-0.007,-0.014,0.002,65.0,67.0,63.0,12.3,1504.7,347.1,-0.4,-0.4,967.501,13.29,0.015,206.6
04,2022-03-17T07:30:00,1000.0,42.79,6.0312,-0.016,-0.021,-0.007,67.0,68.0,64.0,12.2,1504.7,4.9,-0.3,-0.4,967.505,13.29,0.026,217.3
04,2022-03-17T08:00:00,1000.0,42.79,6.0312,-0.015,-0.016,0.003,67.0,68.0,64.0,12.3,1504.7,352.3,-0.3,-0.4,967.503,13.29,0.021,223.1
04,2022-03-17T08:30:00,1000.0,42.79,6.0312,-0.012,-0.021,-0.002,64.0,68.0,63.0,12.2,1504.7,344.9,-0.3,-0.4,967.471,13.3,0.024,209.7
04,2022-03-17T09:00:00,1000.0,42.79,6.0312,-0.023,-0.011,0.004,65.0,67.0,66.0,12.2,1504.7,341.8,-0.3,-0.4,967.429,13.3,0.025,244.4
04,2022-03-17T09:30:00,1000.0,42.79,6.0312,-0.02,-0.009,0.001,65.0,66.0,64.0,12.3,1504.7,344.4,-0.4,-0.5,967.456,13.3,0.021,245.8
04,2022-03-17T10:00:00,1000.0,42.79,6.0312,-0.014,-0.008,0.013,64.0,69.0,63.0,12.2,1504.7,352.0,-0.3,-0.5,967.422,13.3,0.016,240.3
04,2022-03-17T10:30:00,1000.0,42.79,6.0312,-0.007,-0.005,0.006,64.0,65.0,60.0,12.3,1504.7,356.5,-0.4,-0.4,967.401,13.3,0.008,234.5
04,2022-03-17T11:00:00,1000.0,42.79,6.0312,-0.02,-0.013,0.0,64.0,68.0,61.0,12.2,1504.7,356.7,-0.4,-0.4,967.36,13.3,0.023,237.0
04,2022-03-17T11:30:00,1000.0,42.79,6.0312,-0.018,-0.009,-0.003,65.0,64.0,63.0,12.2,1504.7,354.1,-0.4,-0.4,967.351,13.3,0.02,243.4
04,2022-03-17T12:00:00,1000.0,42.79,6.0312,-0.017,-0.004,-0.002,64.0,65.0,71.0,12.2,1504.7,1.7,-0.4,-0.4,967.308,13.3,0.017,256.8
04,2022-03-17T12:30:00,1000.0,42.79,6.0312,-0.017,-0.012,0.0,63.0,66.0,64.0,12.3,1504.7,3.0,-0.4,-0.4,967.283,13.3,0.02,234.8
04,2022-03-17T13:00:00,1000.0,42.79,6.0312,-0.011,-0.006,-0.003,66.0,65.0,61.0,12.3,1504.7,3.6,-0.4,-0.4,967.253,13.3,0.012,241.4
04,2022-03-17T13:30:00,1000.0,42.79,6.0312,-0.008,-0.007,0.011,61.0,67.0,62.0,12.3,1504.7,357.2,-0.4,-0.4,967.282,13.3,0.01,228.8
04,2022-03-17T14:00:00,1000.0,42.79,6.0312,0.0,-0.016,0.004,64.0,64.0,63.0,12.3,1504.8,25.3,-0.3,-0.3,967.315,13.31,0.016,180.0
04,2022-03-17T14:30:00,1000.0,42.79,6.0312,0.001,-0.005,0.006,62.0,67.0,60.0,12.3,1504.8,112.8,-0.4,-0.2,967.293,13.31,0.005,168.7
04,2022-03-17T15:00:00,1000.0,42.79,6.0312,0.008,-0.011,-0.006,68.0,65.0,63.0,12.3,1504.7,100.8,-0.3,-0.2,967.272,13.3,0.013,144.0
04,2022-03-17T15:30:00,1000.0,42.79,6.0312,0.005,-0.012,0.018,66.0,69.0,65.0,12.3,1504.7,103.7,-0.3,-0.3,967.298,13.3,0.013,157.4
04,2022-03-17T16:00:00,1000.0,42.79,6.0312,0.01,-0.007,0.005,66.0,74.0,65.0,12.2,1504.7,102.5,-0.3,-0.3,967.314,13.3,0.012,125.0
04,2022-03-17T16:30:00,1000.0,42.79,6.0312,0.009,-0.025,0.008,64.0,70.0,63.0,12.3,1504.7,109.9,-0.3,-0.3,967.342,13.3,0.026,160.2
04,2022-03-17T17:00:00,1000.0,42.79,6.0312,-0.006,-0.014,0.003,63.0,65.0,64.0,12.2,1504.7,130.1,-0.4,-0.2,967.388,13.3,0.015,203.2
04,2022-03-17T17:30:00,1000.0,42.79,6.0312,0.001,-0.011,-0.002,62.0,66.0,61.0,12.3,1504.7,129.0,-0.4,-0.3,967.414,13.29,0.011,174.8
04,2022-03-17T18:00:00,1000.0,42.79,6.0312,-0.006,-0.013,-0.009,67.0,64.0,62.0,12.2,1504.7,331.9,-0.4,-0.4,967.425,13.29,0.014,204.8
04,2022-03-17T18:30:00,1000.0,42.79,6.0312,-0.016,-0.017,0.0,64.0,64.0,62.0,12.3,1504.7,335.2,-0.4,-0.3,967.402,13.29,0.023,223.3
04,2022-03-17T19:00:00,1000.0,42.79,6.0312,-0.003,-0.025,-0.01,64.0,65.0,61.0,12.2,1504.7,344.9,-0.3,-0.3,967.473,13.29,0.025,186.8
04,2022-03-17T19:30:00,1000.0,42.79,6.0312,0.001,-0.029,0.004,60.0,64.0,61.0,12.3,1504.7,356.3,-0.4,-0.4,967.442,13.3,0.029,178.0
04,2022-03-17T20:00:00,1000.0,42.79,6.0312,-0.014,-0.033,0.0,63.0,65.0,62.0,12.3,1504.7,6.8,-0.4,-0.4,967.423,13.3,0.035,203.0
04,2022-03-17T20:30:00,1000.0,42.79,6.0312,-0.015,-0.027,-0.002,64.0,65.0,62.0,12.3,1504.7,349.3,-0.3,-0.3,967.39,13.3,0.03,209.1
04,2022-03-17T21:00:00,1000.0,42.79,6.0312,-0.013,-0.014,0.006,64.0,65.0,65.0,12.2,1504.7,0.9,-0.3,-0.4,967.393,13.3,0.019,222.9
